CW8371 Weather Reports


Display with metric or nautical units.
time (UTC)temp
F
wind
direction
speed
MPH
gust
MPH
rain 1hr
in
rain 24hr
in
rain mn
in
humidity
%
barometer
mb
20210728063007 60 0 0.0 0.0 0.00 0.33 0.01 80 1013.4
20210728062507 60 0 0.0 0.0 0.00 0.33 0.01 80 1013.3
20210728062007 60 0 0.0 0.0 0.00 0.33 0.01 80 1013.3
20210728061507 60 0 0.0 0.0 0.00 0.33 0.01 80 1013.3
20210728061006 60 0 0.0 0.0 0.00 0.33 0.01 80 1013.3
20210728060507 60 0 0.0 0.0 0.00 0.33 0.01 80 1013.3
20210728060007 60 0 0.0 0.0 0.01 0.33 0.01 80 1013.3
20210728055507 60 0 0.0 0.0 0.01 0.33 0.01 80 1013.2
20210728055007 60 0 0.0 0.0 0.01 0.33 0.01 80 1013.2
20210728054507 60 0 0.0 0.0 0.01 0.33 0.01 80 1013.4
20210728054007 60 0 0.0 0.0 0.01 0.33 0.01 80 1013.4
20210728053507 60 0 0.0 0.0 0.01 0.33 0.01 80 1013.3
20210728053006 60 0 0.0 0.0 0.01 0.33 0.01 80 1013.2
20210728052507 60 0 0.0 0.0 0.01 0.33 0.01 80 1013.3
20210728052007 60 0 0.0 0.0 0.01 0.33 0.01 80 1013.3
20210728051507 60 0 0.0 0.0 0.01 0.33 0.01 80 1013.2
20210728051007 60 0 0.0 0.0 0.01 0.33 0.01 80 1013.1
20210728050507 60 0 0.0 0.0 0.01 0.33 0.01 80 1013.3
20210728050007 60 0 0.0 0.0 0.00 0.32 0.00 80 1013.4
20210728045507 60 0 0.0 0.0 0.00 0.32 0.00 80 1013.4
20210728045007 60 0 0.0 0.0 0.00 0.32 0.00 80 1013.5
20210728044507 60 0 0.0 0.0 0.00 0.32 0.00 80 1013.6
20210728044007 60 0 0.0 0.0 0.00 0.32 0.00 80 1013.5
20210728043507 60 0 0.0 0.0 0.00 0.32 0.00 80 1013.4
20210728043007 60 0 0.0 0.0 0.00 0.32 0.00 80 1013.4
20210728042507 60 0 0.0 0.0 0.00 0.32 0.00 80 1013.3
20210728042007 60 0 0.0 0.0 0.00 0.32 0.00 80 1013.3
20210728041507 60 0 0.0 0.0 0.00 0.32 0.00 80 1013.3
20210728041007 60 0 0.0 0.0 0.01 0.32 0.00 80 1013.4
20210728040507 60 0 0.0 0.0 0.01 0.32 0.00 80 1013.5
20210728040007 60 0 0.0 0.0 0.01 0.32 0.00 80 1013.4
20210728035507 60 0 0.0 0.0 0.01 0.32 0.32 80 1013.4
20210728035007 60 0 0.0 0.0 0.01 0.32 0.32 80 1013.4
20210728034507 60 0 0.0 0.0 0.01 0.32 0.32 80 1013.3
20210728034007 60 0 0.0 0.0 0.01 0.32 0.32 80 1013.3
20210728033507 60 0 0.0 0.0 0.01 0.32 0.32 80 1013.3
20210728033007 60 0 0.0 0.0 0.01 0.32 0.32 80 1013.3
20210728032507 60 0 0.0 0.0 0.01 0.32 0.32 80 1013.3
20210728032007 60 0 0.0 0.0 0.01 0.32 0.32 80 1013.4
20210728031507 60 0 0.0 0.0 0.01 0.32 0.32 80 1013.5
20210728031007 60 0 0.0 0.0 0.00 0.31 0.31 80 1013.6
20210728030507 60 0 0.0 0.0 0.00 0.31 0.31 80 1013.6
20210728030007 60 0 0.0 0.0 0.00 0.31 0.31 80 1013.8
20210728025507 60 0 0.0 0.0 0.00 0.31 0.31 80 1013.8
20210728025006 60 0 0.0 0.0 0.00 0.31 0.31 80 1013.8
20210728024507 60 0 0.0 0.0 0.00 0.31 0.31 80 1013.9
20210728024007 60 0 0.0 0.0 0.00 0.31 0.31 80 1014.0
20210728023507 60 0 0.0 0.0 0.00 0.31 0.31 80 1014.0
20210728023007 60 0 0.0 0.0 0.00 0.31 0.31 80 1014.1
20210728022507 60 0 0.0 0.0 0.00 0.31 0.31 80 1014.0
20210728022007 60 0 0.0 0.0 0.00 0.31 0.31 80 1014.0
20210728021507 60 0 0.0 0.0 0.00 0.31 0.31 80 1014.1
20210728021007 60 0 0.0 0.0 0.00 0.31 0.31 80 1014.1
20210728020507 60 0 0.0 0.0 0.00 0.31 0.31 79 1014.0
20210728020007 60 0 0.0 0.0 0.00 0.31 0.31 80 1014.1
20210728015507 60 0 0.0 0.0 0.00 0.31 0.31 80 1014.0
20210728015007 60 0 0.0 0.0 0.00 0.31 0.31 80 1014.1
20210728014507 60 0 0.0 0.0 0.00 0.31 0.31 80 1014.1
20210728014007 60 0 0.0 0.0 0.01 0.31 0.31 80 1014.0
20210728013507 60 0 0.0 0.0 0.01 0.31 0.31 80 1014.0
20210728013007 60 0 0.0 0.0 0.01 0.31 0.31 79 1014.0
20210728012507 60 0 0.0 0.0 0.02 0.31 0.31 80 1014.0
20210728012007 60 0 0.0 0.0 0.03 0.31 0.31 80 1013.9
20210728011507 60 0 0.0 0.0 0.04 0.31 0.31 80 1013.7
20210728011007 60 0 0.0 0.0 0.05 0.31 0.31 80 1013.7
20210728010506 60 0 0.0 0.0 0.06 0.31 0.31 80 1013.6
20210728010007 60 0 0.0 0.0 0.07 0.31 0.31 80 1013.5
20210728005507 60 0 0.0 0.0 0.08 0.31 0.31 80 1013.2
20210728005007 60 0 0.0 0.0 0.09 0.31 0.31 80 1013.2
20210728004507 60 0 0.0 0.0 0.11 0.31 0.31 80 1013.2
20210728004007 61 0 0.0 0.0 0.12 0.30 0.30 80 1013.3
20210728003507 61 0 0.0 0.0 0.14 0.30 0.30 80 1013.1
20210728003007 61 0 0.0 0.0 0.16 0.30 0.30 80 1013.2
20210728002507 61 0 0.0 0.0 0.16 0.29 0.29 80 1013.1
20210728002007 61 0 0.0 0.0 0.16 0.28 0.28 80 1013.2
20210728001507 61 0 0.0 0.0 0.18 0.27 0.27 80 1013.5
20210728001007 61 0 0.0 0.0 0.20 0.26 0.26 80 1013.5
20210728000507 61 0 0.0 0.0 0.19 0.25 0.25 80 1013.4
20210728000007 61 0 0.0 0.0 0.19 0.24 0.24 80 1013.3
20210727235507 62 0 0.0 0.0 0.19 0.23 0.23 80 1013.4
20210727235007 62 0 0.0 0.0 0.18 0.22 0.22 80 1013.5
20210727234507 62 0 0.0 0.0 0.18 0.20 0.20 80 1013.5
20210727234007 62 0 0.0 0.0 0.16 0.18 0.18 80 1013.5
20210727233507 62 331 0.0 2.0 0.14 0.16 0.16 81 1013.8
20210727233007 62 331 0.0 4.0 0.13 0.14 0.14 81 1013.9
20210727232507 63 331 0.0 4.0 0.13 0.13 0.13 81 1013.8
20210727232007 64 331 1.0 4.0 0.11 0.11 0.11 81 1013.5
20210727231507 64 331 1.0 4.0 0.09 0.09 0.09 82 1013.4
20210727231007 65 331 0.0 2.0 0.06 0.06 0.06 82 1013.2
20210727230507 65 329 1.0 8.0 0.06 0.06 0.06 82 1013.1
20210727230007 66 327 1.0 8.0 0.05 0.05 0.05 82 1013.0
20210727225507 68 326 1.0 4.0 0.04 0.04 0.04 82 1012.9
20210727225007 69 327 1.0 5.0 0.04 0.04 0.04 82 1012.6
20210727224507 70 324 3.0 12.0 0.02 0.02 0.02 82 1012.5
20210727224007 71 325 7.0 14.0 0.02 0.02 0.02 81 1012.9
20210727223507 74 316 6.0 30.0 0.02 0.02 0.02 80 1012.7
20210727223007 76 302 3.0 30.0 0.01 0.01 0.01 76 1012.3
20210727222507 77 281 1.0 11.0 0.00 0.00 0.00 75 1011.7
20210727222007 78 0 0.0 0.0 0.00 0.00 0.00 76 1011.2
20210727221507 79 0 0.0 0.0 0.00 0.00 0.00 73 1011.0
20210727221007 80 0 0.0 0.0 0.00 0.00 0.00 68 1010.9
20210727220507 81 0 0.0 0.0 0.00 0.00 0.00 65 1010.9
20210727220007 81 0 0.0 0.0 0.00 0.00 0.00 65 1010.9
20210727215507 82 0 0.0 0.0 0.00 0.00 0.00 64 1010.8
20210727215007 82 0 0.0 0.0 0.00 0.00 0.00 64 1010.8
20210727214507 83 0 0.0 0.0 0.00 0.00 0.00 67 1010.7
20210727214007 83 257 0.0 2.0 0.00 0.00 0.00 63 1010.7
20210727213507 84 257 0.0 2.0 0.00 0.00 0.00 64 1010.8
20210727213007 84 0 0.0 0.0 0.00 0.00 0.00 67 1010.8
20210727212507 85 0 0.0 0.0 0.00 0.00 0.00 63 1010.8
20210727212007 85 0 0.0 0.0 0.00 0.00 0.00 63 1010.7
20210727211507 85 0 0.0 0.0 0.00 0.00 0.00 65 1010.6
20210727211007 85 0 0.0 0.0 0.00 0.00 0.00 63 1010.6
20210727210507 85 0 0.0 0.0 0.00 0.00 0.00 63 1010.7
20210727210007 85 0 0.0 0.0 0.00 0.00 0.00 63 1010.6
20210727205507 85 0 0.0 0.0 0.00 0.00 0.00 60 1010.7
20210727205007 85 0 0.0 0.0 0.00 0.00 0.00 61 1010.7
20210727204507 85 281 0.0 1.0 0.00 0.00 0.00 63 1010.7
20210727204007 86 281 0.0 1.0 0.00 0.00 0.00 54 1010.7
20210727203507 88 0 0.0 0.0 0.00 0.00 0.00 54 1010.6
20210727203007 88 0 0.0 0.0 0.00 0.00 0.00 55 1010.6
20210727202507 88 0 0.0 0.0 0.00 0.00 0.00 51 1010.6
20210727202008 88 272 0.0 1.0 0.00 0.00 0.00 48 1010.5
20210727201508 88 272 0.0 1.0 0.00 0.00 0.00 49 1010.7
20210727201007 88 0 0.0 0.0 0.00 0.00 0.00 50 1010.7
20210727200507 87 272 0.0 1.0 0.00 0.00 0.00 54 1010.8
20210727200007 86 272 0.0 4.0 0.00 0.00 0.00 51 1010.8
20210727195508 86 272 0.0 4.0 0.00 0.00 0.00 52 1010.9
20210727195008 86 272 1.0 7.0 0.00 0.00 0.00 49 1011.1
20210727194508 86 273 1.0 7.0 0.00 0.00 0.00 50 1011.1
20210727194008 87 274 0.0 7.0 0.00 0.00 0.00 49 1011.2
20210727193508 87 274 1.0 8.0 0.00 0.00 0.00 53 1011.2
20210727193008 86 275 2.0 8.0 0.00 0.00 0.00 48 1011.3
20210727192507 86 276 3.0 8.0 0.00 0.00 0.00 50 1011.3
20210727192008 86 278 2.0 8.0 0.00 0.00 0.00 50 1011.3
20210727191508 86 283 2.0 8.0 0.00 0.00 0.00 49 1011.3
20210727191007 86 286 2.0 8.0 0.00 0.00 0.00 51 1011.4
20210727190507 86 287 1.0 8.0 0.00 0.00 0.00 52 1011.4
20210727190007 86 284 1.0 9.0 0.00 0.00 0.00 49 1011.5
20210727185507 86 256 3.0 10.0 0.00 0.00 0.00 51 1011.5
20210727185007 86 268 4.0 11.0 0.00 0.00 0.00 49 1011.6
20210727184508 86 292 3.0 11.0 0.00 0.00 0.00 48 1011.6
20210727184008 86 298 3.0 11.0 0.00 0.00 0.00 46 1011.7
20210727183508 86 297 1.0 11.0 0.00 0.00 0.00 48 1011.8
20210727183008 86 296 0.0 4.0 0.00 0.00 0.00 51 1011.8
20210727182508 86 296 0.0 4.0 0.00 0.00 0.00 51 1011.9
20210727182007 86 296 0.0 4.0 0.00 0.00 0.00 53 1011.8
20210727181508 85 294 1.0 5.0 0.00 0.00 0.00 51 1011.8
20210727181008 86 294 1.0 5.0 0.00 0.00 0.00 51 1011.8
20210727180507 86 294 0.0 3.0 0.00 0.00 0.00 51 1011.8
20210727180008 86 294 0.0 3.0 0.00 0.00 0.00 54 1011.7
20210727175509 86 294 0.0 3.0 0.00 0.00 0.00 52 1011.7
20210727175007 85 294 0.0 5.0 0.00 0.00 0.00 54 1011.8
20210727174507 85 294 1.0 5.0 0.00 0.00 0.00 54 1011.9
20210727174008 85 294 1.0 8.0 0.00 0.00 0.00 54 1012.0
20210727173507 85 294 1.0 8.0 0.00 0.00 0.00 55 1012.0
20210727173007 85 294 0.0 4.0 0.00 0.00 0.00 57 1012.2
20210727172507 84 294 1.0 5.0 0.00 0.00 0.00 52 1012.2
20210727172007 84 294 1.0 7.0 0.00 0.00 0.00 56 1012.2
20210727171507 84 294 1.0 7.0 0.00 0.00 0.00 54 1012.2
20210727171007 84 294 1.0 5.0 0.00 0.00 0.00 57 1012.4
20210727170507 84 292 2.0 9.0 0.00 0.00 0.00 58 1012.2
20210727170007 84 290 1.0 9.0 0.00 0.00 0.00 53 1012.4
20210727165507 83 286 1.0 7.0 0.00 0.00 0.00 57 1012.4
20210727165007 83 285 1.0 7.0 0.00 0.00 0.00 59 1012.4
20210727164507 83 285 0.0 3.0 0.00 0.00 0.00 56 1012.4
20210727164007 83 285 1.0 6.0 0.00 0.00 0.00 61 1012.4
20210727163507 83 285 1.0 6.0 0.00 0.00 0.00 59 1012.5
20210727163007 83 285 0.0 4.0 0.00 0.00 0.00 59 1012.5
20210727162508 83 285 0.0 6.0 0.00 0.00 0.00 61 1012.6
20210727162007 82 285 1.0 6.0 0.00 0.00 0.00 62 1012.6
20210727161508 82 285 1.0 7.0 0.00 0.00 0.00 58 1012.7
20210727161007 82 286 2.0 11.0 0.00 0.00 0.00 59 1012.7
20210727160507 82 288 3.0 11.0 0.00 0.00 0.00 59 1012.7
20210727160007 81 294 2.0 10.0 0.00 0.00 0.00 62 1012.8
20210727155507 81 298 2.0 9.0 0.00 0.00 0.00 61 1012.8
20210727155008 81 298 2.0 10.0 0.00 0.00 0.00 61 1012.8
20210727154507 81 299 3.0 10.0 0.00 0.00 0.00 61 1012.7
20210727154008 81 300 2.0 9.0 0.00 0.00 0.00 61 1012.9
20210727153508 81 300 0.0 4.0 0.00 0.00 0.00 63 1012.9
20210727153007 81 299 1.0 8.0 0.00 0.00 0.00 66 1012.8
20210727152508 81 299 1.0 8.0 0.00 0.00 0.00 67 1013.0
20210727152007 80 300 1.0 8.0 0.00 0.00 0.00 66 1013.0
20210727151507 80 300 2.0 8.0 0.00 0.00 0.00 65 1013.0
20210727151008 80 300 2.0 5.0 0.00 0.00 0.00 66 1013.2
20210727150007 80 293 3.0 8.0 0.00 0.00 0.00 66 1013.2
20210727145507 80 293 2.0 8.0 0.00 0.00 0.00 66 1013.2
20210727145007 80 293 1.0 4.0 0.00 0.00 0.00 67 1013.2
20210727144507 79 293 0.0 4.0 0.00 0.00 0.00 68 1013.2
20210727144007 79 293 2.0 7.0 0.00 0.00 0.00 68 1013.1
20210727143507 79 293 2.0 7.0 0.00 0.00 0.00 66 1013.0
20210727143007 79 293 1.0 5.0 0.00 0.00 0.00 67 1012.9
20210727142507 78 293 1.0 5.0 0.00 0.00 0.00 71 1012.9
20210727142007 78 293 0.0 3.0 0.00 0.00 0.00 71 1012.9
20210727141507 78 293 0.0 1.0 0.00 0.00 0.00 72 1013.0
20210727141007 78 293 1.0 5.0 0.00 0.00 0.00 73 1012.8
20210727140507 77 293 1.0 7.0 0.00 0.00 0.00 71 1012.8
20210727140007 77 293 1.0 7.0 0.00 0.00 0.00 70 1012.7
20210727135506 77 293 0.0 5.0 0.00 0.00 0.00 73 1012.7
20210727135006 77 293 1.0 5.0 0.00 0.00 0.00 75 1012.9
20210727134507 76 293 0.0 5.0 0.00 0.00 0.00 74 1013.1
20210727134007 76 293 0.0 5.0 0.00 0.00 0.00 74 1013.1
20210727133507 76 0 0.0 0.0 0.00 0.00 0.00 75 1013.3
20210727133007 76 0 0.0 0.0 0.00 0.00 0.00 76 1013.2
20210727132506 76 0 0.0 0.0 0.00 0.00 0.00 76 1013.2
20210727132006 76 0 0.0 0.0 0.00 0.00 0.00 77 1013.2
20210727131507 75 0 0.0 0.0 0.00 0.00 0.00 78 1013.1
20210727131007 74 0 0.0 0.0 0.00 0.00 0.00 77 1013.1
20210727130506 74 0 0.0 0.0 0.00 0.00 0.00 80 1012.9
20210727130007 73 0 0.0 0.0 0.00 0.00 0.00 81 1013.0
20210727125507 72 0 0.0 0.0 0.00 0.00 0.00 82 1013.1
20210727125006 72 0 0.0 0.0 0.00 0.00 0.00 82 1013.1
20210727124507 71 0 0.0 0.0 0.00 0.00 0.00 82 1013.2
20210727124007 70 0 0.0 0.0 0.00 0.00 0.00 83 1013.2
20210727123507 69 0 0.0 0.0 0.00 0.00 0.00 83 1013.1
20210727123007 68 0 0.0 0.0 0.00 0.00 0.00 82 1013.1
20210727122507 66 0 0.0 0.0 0.00 0.00 0.00 82 1013.2
20210727122007 64 0 0.0 0.0 0.00 0.00 0.00 79 1013.1
20210727121507 62 0 0.0 0.0 0.00 0.00 0.00 78 1013.1
20210727121007 62 0 0.0 0.0 0.00 0.00 0.00 78 1012.9
20210727120506 62 0 0.0 0.0 0.00 0.00 0.00 78 1013.1
20210727120007 61 0 0.0 0.0 0.00 0.00 0.00 79 1013.1
20210727115507 60 0 0.0 0.0 0.00 0.00 0.00 79 1013.1
20210727115007 60 0 0.0 0.0 0.00 0.00 0.00 80 1013.0
20210727114507 60 0 0.0 0.0 0.00 0.00 0.00 80 1012.8
20210727114007 60 0 0.0 0.0 0.00 0.00 0.00 80 1012.9
20210727113507 59 0 0.0 0.0 0.00 0.00 0.00 80 1012.9
20210727113007 59 0 0.0 0.0 0.00 0.00 0.00 80 1012.8
20210727112507 59 0 0.0 0.0 0.00 0.00 0.00 80 1012.8
20210727112007 58 0 0.0 0.0 0.00 0.00 0.00 81 1012.9
20210727111506 58 0 0.0 0.0 0.00 0.00 0.00 80 1013.0
20210727111006 57 0 0.0 0.0 0.00 0.00 0.00 80 1013.0
20210727110507 57 0 0.0 0.0 0.00 0.00 0.00 80 1013.0
20210727110007 57 0 0.0 0.0 0.00 0.00 0.00 80 1013.0
20210727105507 56 0 0.0 0.0 0.00 0.00 0.00 80 1012.9
20210727105007 56 0 0.0 0.0 0.00 0.00 0.00 80 1012.9
20210727104507 56 0 0.0 0.0 0.00 0.00 0.00 80 1013.0
20210727104007 56 0 0.0 0.0 0.00 0.00 0.00 80 1013.1
20210727103507 56 0 0.0 0.0 0.00 0.00 0.00 80 1013.0
20210727103007 56 0 0.0 0.0 0.00 0.00 0.00 80 1013.0
20210727102507 56 0 0.0 0.0 0.00 0.00 0.00 80 1012.9
20210727102007 56 0 0.0 0.0 0.00 0.00 0.00 80 1012.8
20210727101507 56 0 0.0 0.0 0.00 0.00 0.00 80 1012.8
20210727101007 56 0 0.0 0.0 0.00 0.00 0.00 80 1012.8
20210727100506 56 0 0.0 0.0 0.00 0.00 0.00 80 1012.7
20210727100007 56 0 0.0 0.0 0.00 0.00 0.00 80 1012.6
20210727095507 56 0 0.0 0.0 0.00 0.00 0.00 80 1012.7
20210727095007 56 0 0.0 0.0 0.00 0.00 0.00 80 1012.6
20210727094507 56 0 0.0 0.0 0.00 0.00 0.00 80 1012.5
20210727094007 56 0 0.0 0.0 0.00 0.00 0.00 80 1012.4
20210727093507 56 0 0.0 0.0 0.00 0.00 0.00 80 1012.3
20210727093007 56 0 0.0 0.0 0.00 0.01 0.00 80 1012.2
20210727092507 56 0 0.0 0.0 0.00 0.01 0.00 80 1012.1
20210727092007 56 0 0.0 0.0 0.00 0.01 0.00 80 1012.2
20210727091507 56 0 0.0 0.0 0.00 0.01 0.00 80 1012.1
20210727091007 56 0 0.0 0.0 0.00 0.01 0.00 80 1012.2
20210727090507 56 0 0.0 0.0 0.00 0.01 0.00 80 1012.1
20210727090007 56 0 0.0 0.0 0.00 0.01 0.00 80 1012.1
20210727085507 56 0 0.0 0.0 0.00 0.01 0.00 80 1012.0
20210727085007 56 0 0.0 0.0 0.00 0.01 0.00 80 1011.9
20210727084507 56 0 0.0 0.0 0.00 0.01 0.00 80 1011.8
20210727084007 57 0 0.0 0.0 0.00 0.01 0.00 80 1011.9
20210727083507 57 0 0.0 0.0 0.00 0.01 0.00 80 1011.8
20210727083007 57 0 0.0 0.0 0.00 0.01 0.00 79 1011.7
20210727082506 57 0 0.0 0.0 0.00 0.01 0.00 79 1011.6
20210727082007 57 0 0.0 0.0 0.00 0.01 0.00 79 1011.6
20210727081507 57 0 0.0 0.0 0.00 0.01 0.00 80 1011.5
20210727081008 57 0 0.0 0.0 0.00 0.01 0.00 80 1011.5
20210727080507 57 0 0.0 0.0 0.00 0.01 0.00 80 1011.5
20210727080007 57 0 0.0 0.0 0.00 0.01 0.00 80 1011.5
20210727075507 57 0 0.0 0.0 0.00 0.01 0.00 80 1011.6
20210727075007 57 0 0.0 0.0 0.00 0.01 0.00 79 1011.6
20210727074507 58 0 0.0 0.0 0.00 0.01 0.00 79 1011.6
20210727074007 58 0 0.0 0.0 0.00 0.01 0.00 79 1011.6
20210727073507 58 0 0.0 0.0 0.00 0.01 0.00 79 1011.6
20210727073007 58 0 0.0 0.0 0.00 0.01 0.00 79 1011.6
20210727072507 58 0 0.0 0.0 0.00 0.01 0.00 79 1011.5
20210727072007 58 0 0.0 0.0 0.00 0.01 0.00 79 1011.5
20210727071507 58 0 0.0 0.0 0.00 0.01 0.00 79 1011.6
20210727071007 58 0 0.0 0.0 0.00 0.01 0.00 79 1011.6
20210727070507 58 0 0.0 0.0 0.00 0.01 0.00 79 1011.5
20210727070007 58 0 0.0 0.0 0.00 0.01 0.00 79 1011.5
20210727065507 58 0 0.0 0.0 0.00 0.01 0.00 79 1011.4
20210727065007 58 0 0.0 0.0 0.00 0.01 0.00 79 1011.5
20210727064507 59 0 0.0 0.0 0.00 0.01 0.00 79 1011.5
20210727064007 59 0 0.0 0.0 0.00 0.01 0.00 79 1011.5
20210727063507 59 0 0.0 0.0 0.00 0.01 0.00 79 1011.5